"startDT [UTC]","vpos","CH4 [ppm]","stdev(CH4) [ppm]","CO2 [ppm]","stdev(CO2) [ppm]","H2O [ppm]","stdev(H2O)","p_LGR [torr]","T_LGR [C]","mt1_LGR [us]","mt2_LGR [us]","T_ECpre [C]","T_EC1 [C]","T_EC2 [C]","p_inlet [hPa]","p_in [hPa]","p_out [hPa]","T_inlet [C]","RH_inlet [%]","dwpt_inlet [C]","T_vent [C]","RH_vent [%]","dwpt_vent [C]","flow_vent [l min-1]","flow_inlet [l min-1]","dwpt_sample [C]","T_room [C]"
2013-06-05 00:00:00,0.0,1.8944,0.0011,407.97,0.26,41.4,35.2,138.23,22.96,24.61,36.33,0.04,-272.75,-272.75,-34,547,-925,16.9,20.5,-5.9,17.2,20.9,-5.4,5.73,2.42,-26.7,22.8
2013-06-05 00:01:00,0.0,1.8944,0.0010,407.98,0.29,40.1,34.1,138.23,22.96,24.62,36.34,0.04,-272.76,-272.76,-34,547,-924,16.9,20.5,-5.9,17.1,20.9,-5.4,5.73,2.42,-26.7,22.8
2013-06-05 00:02:00,0.0,1.8949,0.0010,407.83,0.31,42.7,37.1,138.23,22.96,24.61,36.34,0.04,-272.75,-272.75,-34,547,-924,16.9,20.6,-5.8,17.2,21.0,-5.4,5.73,2.42,-26.7,22.8
2013-06-05 00:03:00,0.0,1.8948,0.0008,407.83,0.27,37.2,33.9,138.23,22.96,24.62,36.34,0.04,-272.75,-272.76,-34,547,-924,16.8,20.8,-5.8,17.1,21.1,-5.3,5.73,2.42,-26.7,22.9
2013-06-05 00:04:00,0.0,1.8942,0.0010,407.83,0.25,43.3,34.0,138.23,22.96,24.62,36.34,0.04,-272.76,-272.76,-34,547,-924,16.8,20.8,-5.7,17.1,21.2,-5.3,5.73,2.42,-26.7,22.9
2013-06-05 00:05:00,0.0,1.8944,0.0009,407.94,0.26,36.0,39.0,138.23,22.96,24.62,36.33,0.04,-272.76,-272.75,-34,547,-924,16.8,20.7,-5.8,17.1,21.1,-5.3,5.73,2.42,-26.7,22.9
2013-06-05 00:06:00,0.0,1.8947,0.0010,407.91,0.24,31.4,37.4,138.23,22.95,24.61,36.34,0.04,-272.75,-272.75,-34,547,-924,16.8,20.8,-5.8,17.1,21.1,-5.3,5.73,2.43,-26.7,22.9
2013-06-05 00:07:00,0.0,1.8942,0.0009,407.79,0.27,36.6,33.4,138.23,22.95,24.62,36.35,0.04,-272.76,-272.76,-34,547,-924,16.8,20.8,-5.7,17.1,21.2,-5.3,5.73,2.42,-26.7,22.8
2013-06-05 00:08:00,0.0,1.8940,0.0009,407.86,0.25,36.2,35.3,138.23,22.95,24.62,36.34,0.04,-272.75,-272.76,-34,547,-924,16.9,20.8,-5.7,17.2,21.2,-5.2,5.73,2.42,-26.7,22.8
2013-06-05 00:09:00,0.0,1.8943,0.0010,407.86,0.26,44.0,37.4,138.23,22.95,24.62,36.34,0.04,-272.75,-272.75,-34,547,-924,16.9,20.8,-5.7,17.2,21.1,-5.3,5.73,2.43,-26.7,22.8
2013-06-05 00:10:00,0.0,1.8948,0.0011,407.87,0.23,43.5,36.3,138.23,22.95,24.61,36.34,0.04,-272.76,-272.76,-34,547,-924,16.9,20.8,-5.8,17.2,21.1,-5.3,5.73,2.43,-26.7,22.8
2013-06-05 00:11:00,0.0,1.8943,0.0009,407.87,0.24,36.0,34.9,138.23,22.95,24.62,36.34,0.04,-272.76,-272.76,-34,547,-924,16.9,20.7,-5.8,17.2,21.1,-5.3,5.73,2.43,-26.7,22.8
2013-06-05 00:12:00,0.0,1.8946,0.0011,407.94,0.30,38.6,38.1,138.23,22.95,24.62,36.34,0.04,-272.75,-272.76,-34,547,-924,16.9,20.6,-5.8,17.2,21.0,-5.4,5.73,2.43,-26.7,22.8
2013-06-05 00:13:00,0.0,1.8947,0.0007,407.95,0.34,43.2,37.4,138.23,22.95,24.61,36.33,0.04,-272.75,-272.76,-34,547,-924,16.9,20.6,-5.8,17.2,20.9,-5.4,5.73,2.43,-26.7,22.8
2013-06-05 00:14:00,0.0,1.8944,0.0010,407.79,0.23,38.4,38.3,138.23,22.95,24.62,36.34,0.04,-272.76,-272.76,-34,547,-924,16.9,20.6,-5.8,17.2,20.9,-5.4,5.73,2.44,-26.7,22.8
2013-06-05 00:15:00,0.0,1.8946,0.0012,407.94,0.28,39.0,37.7,138.23,22.95,24.62,36.33,0.04,-272.76,-272.76,-34,547,-924,16.9,20.6,-5.8,17.2,20.9,-5.4,5.73,2.44,-26.7,22.8
2013-06-05 00:16:00,0.0,1.8943,0.0011,407.90,0.25,35.0,37.8,138.23,22.95,24.62,36.34,0.04,-272.75,-272.76,-34,547,-924,16.9,20.6,-5.8,17.2,20.9,-5.4,5.73,2.44,-26.7,22.9
2013-06-05 00:17:00,0.0,1.8945,0.0011,407.97,0.26,41.8,35.3,138.23,22.95,24.61,36.33,0.04,-272.76,-272.76,-34,547,-924,16.9,20.7,-5.8,17.2,21.0,-5.3,5.73,2.44,-26.7,22.9
2013-06-05 00:18:00,0.0,1.8948,0.0010,407.96,0.25,33.9,33.1,138.23,22.95,24.61,36.34,0.04,-272.75,-272.76,-34,547,-924,16.9,20.7,-5.8,17.2,21.0,-5.3,5.73,2.44,-26.7,22.8
2013-06-05 00:19:00,0.0,1.8943,0.0010,407.86,0.23,39.5,31.7,138.23,22.95,24.62,36.34,0.04,-272.75,-272.75,-34,547,-924,16.9,20.8,-5.7,17.2,21.1,-5.3,5.73,2.44,-26.7,22.9
2013-06-05 00:20:00,0.0,1.8944,0.0012,407.99,0.29,46.8,38.7,138.23,22.95,24.61,36.33,0.04,-272.76,-272.75,-34,547,-924,16.9,20.8,-5.7,17.2,21.1,-5.3,5.73,2.43,-26.7,22.9
2013-06-05 00:21:00,0.0,1.8946,0.0010,407.84,0.25,43.9,32.7,138.23,22.95,24.61,36.34,0.04,-272.76,-272.76,-34,547,-924,16.9,20.9,-5.7,17.2,21.2,-5.2,5.73,2.44,-26.7,22.9
2013-06-05 00:22:00,0.0,1.8947,0.0008,407.92,0.26,40.8,40.1,138.23,22.95,24.61,36.34,0.04,-272.75,-272.76,-34,547,-924,16.9,20.9,-5.7,17.2,21.2,-5.2,5.73,2.44,-26.7,22.9
2013-06-05 00:23:00,0.0,1.8947,0.0010,407.95,0.28,36.5,31.7,138.23,22.96,24.61,36.34,0.04,-272.76,-272.75,-34,547,-924,16.8,20.9,-5.7,17.2,21.3,-5.2,5.73,2.43,-26.7,22.9
2013-06-05 00:24:00,0.0,1.8947,0.0010,407.93,0.24,37.2,38.6,138.23,22.96,24.62,36.34,0.04,-272.76,-272.76,-34,547,-924,16.8,20.9,-5.7,17.2,21.2,-5.2,5.73,2.44,-26.7,22.9
2013-06-05 00:25:00,0.0,1.8945,0.0009,407.80,0.30,30.5,32.8,138.23,22.96,24.62,36.35,0.04,-272.75,-272.75,-34,547,-924,16.8,20.9,-5.7,17.2,21.2,-5.2,5.73,2.43,-26.7,22.9
2013-06-05 00:26:00,0.0,1.8945,0.0011,407.80,0.30,46.7,37.6,138.23,22.96,24.62,36.34,0.04,-272.75,-272.75,-34,547,-924,16.9,20.9,-5.6,17.2,21.2,-5.2,5.73,2.43,-26.7,22.8
2013-06-05 00:27:00,0.0,1.8944,0.0010,407.85,0.23,35.5,35.5,138.23,22.95,24.62,36.34,0.04,-272.76,-272.76,-34,547,-924,16.9,20.8,-5.7,17.2,21.2,-5.2,5.73,2.43,-26.7,22.8
2013-06-05 00:28:00,0.0,1.8944,0.0010,408.02,0.27,36.3,36.5,138.22,22.95,24.61,36.34,0.04,-272.76,-272.76,-34,547,-924,16.9,20.8,-5.7,17.2,21.1,-5.2,5.73,2.43,-26.7,22.8
2013-06-05 00:29:00,0.0,1.8945,0.0010,407.95,0.24,44.7,41.7,138.22,22.95,24.61,36.34,0.04,-272.75,-272.75,-34,547,-924,16.9,20.7,-5.7,17.2,21.1,-5.3,5.73,2.43,-26.7,22.7
2013-06-05 00:30:00,0.0,1.8940,0.0011,408.04,0.25,48.5,33.5,138.23,22.95,24.62,36.33,0.04,-272.76,-272.76,-34,547,-924,16.9,20.6,-5.8,17.2,21.0,-5.4,5.73,2.43,-26.7,22.7
2013-06-05 00:31:00,0.0,1.8941,0.0008,407.93,0.25,47.1,33.6,138.23,22.95,24.62,36.34,0.04,-272.76,-272.76,-34,547,-924,16.9,20.6,-5.8,17.2,20.9,-5.4,5.73,2.42,-26.7,22.8
2013-06-05 00:32:00,0.0,1.8945,0.0010,407.91,0.28,44.0,41.1,138.23,22.96,24.62,36.34,0.04,-272.76,-272.76,-34,547,-924,16.9,20.5,-5.9,17.2,20.9,-5.4,5.73,2.42,-26.7,22.8
2013-06-05 00:33:00,0.0,1.8944,0.0010,407.94,0.23,26.3,30.2,138.23,22.96,24.62,36.34,0.04,-272.76,-272.76,-34,547,-924,16.9,20.4,-5.9,17.2,20.8,-5.5,5.73,2.42,-26.7,22.8
2013-06-05 00:34:00,0.0,1.8946,0.0011,407.94,0.28,26.0,26.7,138.23,22.95,24.61,36.34,0.04,-272.75,-272.76,-35,547,-924,16.9,20.5,-5.9,17.2,20.9,-5.4,5.73,2.42,-26.7,22.8
2013-06-05 00:35:00,0.0,1.8948,0.0012,407.89,0.22,35.2,31.9,138.23,22.95,24.62,36.35,0.04,-272.75,-272.76,-34,547,-924,16.9,20.6,-5.8,17.2,20.9,-5.4,5.73,2.42,-26.7,22.8
2013-06-05 00:36:00,0.0,1.8950,0.0011,407.90,0.23,35.3,34.4,138.23,22.96,24.61,36.34,0.04,-272.75,-272.75,-34,547,-924,16.9,20.6,-5.8,17.2,20.9,-5.4,5.73,2.42,-26.7,22.8
2013-06-05 00:37:00,0.0,1.8948,0.0010,407.97,0.26,42.2,39.3,138.23,22.96,24.61,36.34,0.04,-272.76,-272.76,-34,547,-924,16.9,20.5,-5.9,17.2,20.8,-5.4,5.73,2.42,-26.7,22.8
2013-06-05 00:38:00,0.0,1.8948,0.0011,407.96,0.30,34.7,37.9,138.23,22.96,24.61,36.34,0.04,-272.76,-272.76,-34,547,-924,17.0,20.5,-5.9,17.2,20.8,-5.4,5.73,2.41,-26.7,22.8
2013-06-05 00:39:00,0.0,1.8944,0.0009,407.93,0.30,36.1,32.8,138.23,22.96,24.62,36.34,0.04,-272.75,-272.75,-34,547,-924,16.9,20.5,-5.9,17.2,20.8,-5.4,5.73,2.42,-26.7,22.8
2013-06-05 00:40:00,0.0,1.8943,0.0009,407.96,0.28,29.8,27.6,138.23,22.96,24.62,36.34,0.04,-272.76,-272.76,-34,547,-924,16.9,20.4,-5.9,17.2,20.8,-5.5,5.73,2.42,-26.7,22.8
2013-06-05 00:41:00,0.0,1.8946,0.0013,407.97,0.26,42.7,39.2,138.23,22.95,24.61,36.33,0.04,-272.76,-272.76,-34,547,-924,16.9,20.4,-5.9,17.2,20.8,-5.4,5.73,2.42,-26.7,22.8
2013-06-05 00:42:00,0.0,1.8942,0.0009,407.90,0.28,41.7,36.5,138.23,22.95,24.62,36.34,0.04,-272.75,-272.76,-34,547,-924,16.9,20.5,-5.8,17.2,20.8,-5.4,5.73,2.43,-26.7,22.8
2013-06-05 00:43:00,0.0,1.8945,0.0009,408.02,0.25,42.1,33.4,138.23,22.95,24.61,36.33,0.04,-272.75,-272.76,-34,547,-924,16.9,20.6,-5.8,17.2,20.9,-5.3,5.73,2.43,-26.7,22.8
2013-06-05 00:44:00,0.0,1.8944,0.0010,407.91,0.29,36.4,31.4,138.23,22.95,24.62,36.34,0.04,-272.76,-272.76,-35,547,-924,17.0,20.7,-5.7,17.2,21.0,-5.3,5.73,2.43,-26.7,22.8
2013-06-05 00:45:00,0.0,1.8946,0.0009,407.93,0.27,38.8,40.1,138.23,22.96,24.62,36.34,0.04,-272.75,-272.75,-35,547,-924,16.9,20.7,-5.7,17.2,21.1,-5.2,5.73,2.44,-26.7,22.8
2013-06-05 00:46:00,0.0,1.8942,0.0009,407.97,0.27,35.9,35.4,138.23,22.96,24.62,36.34,0.04,-272.75,-272.75,-35,547,-924,16.9,20.8,-5.7,17.2,21.1,-5.2,5.73,2.44,-26.7,22.8
2013-06-05 00:47:00,0.0,1.8946,0.0009,407.92,0.28,37.4,35.8,138.23,22.95,24.62,36.34,0.04,-272.76,-272.76,-35,547,-924,16.9,20.7,-5.7,17.2,21.0,-5.3,5.73,2.44,-26.7,22.8
2013-06-05 00:48:00,0.0,1.8946,0.0010,407.96,0.26,41.8,40.5,138.23,22.96,24.62,36.34,0.04,-272.76,-272.76,-34,547,-924,16.9,20.6,-5.8,17.2,21.0,-5.3,5.73,2.44,-26.7,22.8
2013-06-05 00:49:00,0.0,1.8953,0.0011,407.87,0.30,29.8,33.8,138.23,22.96,24.61,36.35,0.04,-272.75,-272.75,-34,547,-924,16.9,20.7,-5.7,17.2,21.0,-5.3,5.73,2.43,-26.7,22.8
2013-06-05 00:50:00,0.0,1.8945,0.0009,408.03,0.27,34.6,37.0,138.23,22.96,24.62,36.34,0.04,-272.75,-272.76,-34,547,-924,17.0,20.7,-5.7,17.2,21.1,-5.2,5.73,2.44,-26.7,22.8
2013-06-05 00:51:00,0.0,1.8941,0.0011,407.92,0.24,34.2,32.0,138.23,22.96,24.62,36.35,0.04,-272.76,-272.76,-34,547,-924,17.0,20.7,-5.7,17.2,21.0,-5.3,5.73,2.43,-26.7,22.8
2013-06-05 00:52:00,0.0,1.8944,0.0012,408.00,0.25,49.2,38.3,138.23,22.95,24.61,36.33,0.04,-272.75,-272.76,-34,547,-924,17.0,20.6,-5.7,17.2,21.0,-5.3,5.73,2.44,-26.7,22.8
2013-06-05 00:53:00,0.0,1.8946,0.0011,407.87,0.26,40.7,41.7,138.23,22.95,24.61,36.34,0.04,-272.76,-272.76,-34,547,-924,17.0,20.6,-5.7,17.2,21.0,-5.3,5.73,2.43,-26.7,22.8
2013-06-05 00:54:00,0.0,1.8947,0.0009,407.95,0.25,42.6,35.2,138.23,22.96,24.61,36.34,0.04,-272.76,-272.76,-35,547,-924,17.0,20.7,-5.7,17.2,21.0,-5.3,5.73,2.43,-26.6,22.9
2013-06-05 00:55:00,0.0,1.8947,0.0009,407.87,0.25,33.6,37.5,138.23,22.96,24.62,36.35,0.04,-272.76,-272.76,-35,547,-924,17.0,20.8,-5.6,17.2,21.2,-5.2,5.73,2.43,-26.6,22.8
2013-06-05 00:56:00,0.0,1.8945,0.0011,408.03,0.27,37.3,37.2,138.23,22.96,24.62,36.33,0.04,-272.76,-272.75,-35,547,-924,17.0,20.9,-5.5,17.2,21.2,-5.1,5.73,2.43,-26.7,22.8
2013-06-05 00:57:00,0.0,1.8946,0.0009,407.90,0.26,41.2,36.4,138.23,22.95,24.61,36.34,0.04,-272.76,-272.75,-35,547,-924,17.0,20.9,-5.5,17.2,21.3,-5.1,5.73,2.42,-26.7,22.9
2013-06-05 00:58:00,0.0,1.8941,0.0010,407.89,0.25,39.6,33.8,138.23,22.95,24.62,36.34,0.04,-272.76,-272.76,-35,547,-924,17.0,21.0,-5.5,17.2,21.3,-5.1,5.73,2.42,-26.7,22.9
2013-06-05 00:59:00,0.0,1.8945,0.0010,407.97,0.28,41.8,36.2,138.23,22.95,24.62,36.34,0.04,-272.76,-272.76,-34,547,-924,17.0,20.9,-5.6,17.2,21.2,-5.1,5.73,2.42,-26.6,22.8
2013-06-05 01:00:00,0.0,1.8944,0.0009,407.91,0.28,42.7,37.4,138.23,22.96,24.62,36.34,0.04,-272.76,-272.76,-34,547,-924,17.0,20.8,-5.6,17.2,21.2,-5.2,5.73,2.42,-26.7,22.8
2013-06-05 01:01:00,0.0,1.8943,0.0010,408.04,0.24,46.5,38.7,138.23,22.96,24.61,36.33,0.04,-272.76,-272.76,-34,547,-924,17.0,20.8,-5.6,17.2,21.2,-5.2,5.73,2.42,-26.7,22.9
2013-06-05 01:02:00,0.0,1.8941,0.0011,407.91,0.27,35.5,33.0,138.23,22.95,24.62,36.34,0.04,-272.75,-272.75,-34,547,-924,17.0,20.8,-5.6,17.2,21.2,-5.2,5.73,2.42,-26.7,22.9
2013-06-05 01:03:00,0.0,1.8948,0.0010,407.89,0.25,40.7,39.9,138.23,22.95,24.62,36.34,0.04,-272.76,-272.76,-34,547,-924,17.0,20.8,-5.6,17.2,21.2,-5.2,5.73,2.42,-26.7,22.9
2013-06-05 01:04:00,0.0,1.8949,0.0011,407.95,0.29,41.3,34.7,138.23,22.96,24.62,36.34,0.04,-272.76,-272.76,-34,547,-924,17.0,20.8,-5.6,17.2,21.2,-5.2,5.73,2.42,-26.7,22.9
2013-06-05 01:05:00,0.0,1.8949,0.0009,407.99,0.27,31.8,29.4,138.23,22.96,24.62,36.33,0.04,-272.76,-272.76,-34,547,-924,17.0,20.9,-5.6,17.2,21.2,-5.2,5.73,2.42,-26.7,22.9
2013-06-05 01:06:00,0.0,1.8946,0.0009,407.95,0.25,41.6,32.6,138.23,22.96,24.61,36.34,0.04,-272.76,-272.76,-35,547,-924,17.0,20.9,-5.6,17.2,21.2,-5.1,5.73,2.42,-26.7,22.9
2013-06-05 01:07:00,0.0,1.8948,0.0011,408.01,0.29,30.6,33.0,138.23,22.96,24.62,36.34,0.04,-272.76,-272.76,-35,547,-924,17.0,20.9,-5.5,17.2,21.3,-5.1,5.73,2.42,-26.7,22.9
2013-06-05 01:08:00,0.0,1.8955,0.0011,407.86,0.25,37.6,35.4,138.23,22.96,24.61,36.35,0.04,-272.75,-272.76,-35,547,-924,17.0,20.8,-5.6,17.2,21.1,-5.2,5.73,2.42,-26.7,22.9
2013-06-05 01:09:00,0.0,1.8950,0.0009,407.84,0.28,39.8,37.4,138.23,22.96,24.61,36.34,0.04,-272.76,-272.76,-35,547,-924,17.0,20.6,-5.7,17.2,20.9,-5.3,5.73,2.42,-26.6,22.8
2013-06-05 01:10:00,0.0,1.8946,0.0009,407.88,0.26,46.5,40.2,138.23,22.96,24.62,36.35,0.04,-272.75,-272.76,-35,547,-924,17.0,20.6,-5.7,17.2,20.9,-5.3,5.73,2.42,-26.6,22.8
2013-06-05 01:11:00,0.0,1.8948,0.0009,407.85,0.20,34.0,36.0,138.23,22.96,24.62,36.35,0.04,-272.76,-272.76,-34,547,-924,17.1,20.5,-5.7,17.3,20.9,-5.3,5.73,2.43,-26.7,22.8
2013-06-05 01:12:00,0.0,1.8949,0.0008,407.99,0.28,33.9,34.4,138.23,22.96,24.62,36.33,0.04,-272.76,-272.76,-34,547,-924,17.1,20.5,-5.7,17.3,20.9,-5.3,5.73,2.43,-26.6,22.8
2013-06-05 01:13:00,0.0,1.8945,0.0010,407.93,0.34,38.2,32.0,138.23,22.96,24.62,36.34,0.04,-272.75,-272.76,-34,548,-924,17.1,20.4,-5.8,17.3,20.8,-5.4,5.73,2.43,-26.6,22.9
2013-06-05 01:14:00,0.0,1.8945,0.0011,407.91,0.28,41.9,38.3,138.23,22.96,24.62,36.34,0.04,-272.76,-272.76,-34,548,-924,17.1,20.4,-5.9,17.3,20.7,-5.4,5.73,2.43,-26.6,22.9
2013-06-05 01:15:00,0.0,1.8944,0.0010,407.96,0.28,38.9,37.8,138.23,22.96,24.62,36.34,0.04,-272.75,-272.76,-34,548,-924,17.1,20.3,-5.8,17.3,20.7,-5.4,5.73,2.43,-26.6,22.9
2013-06-05 01:16:00,0.0,1.8945,0.0009,407.99,0.25,32.7,34.8,138.23,22.96,24.62,36.34,0.04,-272.75,-272.75,-35,547,-924,17.1,20.4,-5.8,17.3,20.8,-5.4,5.73,2.43,-26.6,22.8
2013-06-05 01:17:00,0.0,1.8950,0.0010,408.01,0.27,43.4,36.1,138.23,22.96,24.61,36.34,0.04,-272.76,-272.76,-35,548,-924,17.1,20.5,-5.8,17.3,20.8,-5.3,5.73,2.43,-26.6,22.9
2013-06-05 01:18:00,0.0,1.8954,0.0011,407.89,0.26,38.0,33.9,138.23,22.97,24.61,36.34,0.04,-272.76,-272.76,-35,547,-924,17.0,20.5,-5.8,17.3,20.8,-5.4,5.73,2.43,-26.7,22.9
2013-06-05 01:19:00,0.0,1.8949,0.0011,407.97,0.28,42.9,42.0,138.23,22.97,24.62,36.34,0.04,-272.76,-272.75,-35,547,-924,17.0,20.5,-5.8,17.3,20.8,-5.4,5.73,2.43,-26.6,22.9
2013-06-05 01:20:00,0.0,1.8951,0.0011,407.96,0.25,37.1,35.2,138.23,22.96,24.61,36.34,0.04,-272.75,-272.75,-35,548,-924,17.0,20.5,-5.8,17.3,20.8,-5.3,5.73,2.43,-26.6,22.9
2013-06-05 01:21:00,0.0,1.8949,0.0010,407.89,0.25,39.9,37.5,138.23,22.96,24.62,36.34,0.04,-272.76,-272.76,-35,547,-924,17.0,20.5,-5.8,17.3,20.8,-5.3,5.73,2.43,-26.6,22.9
2013-06-05 01:22:00,0.0,1.8949,0.0010,408.01,0.29,34.3,31.5,138.23,22.97,24.62,36.34,0.04,-272.76,-272.75,-35,548,-924,17.0,20.5,-5.8,17.3,20.8,-5.4,5.73,2.43,-26.6,22.8
2013-06-05 01:23:00,0.0,1.8950,0.0010,408.07,0.27,34.6,37.1,138.23,22.97,24.62,36.33,0.04,-272.75,-272.75,-34,547,-924,17.0,20.6,-5.8,17.3,20.9,-5.3,5.73,2.43,-26.7,22.8
2013-06-05 01:24:00,0.0,1.8950,0.0010,407.96,0.29,39.1,35.7,138.23,22.97,24.61,36.34,0.04,-272.76,-272.76,-35,547,-924,17.0,20.7,-5.7,17.3,21.0,-5.2,5.73,2.43,-26.7,22.9
2013-06-05 01:25:00,0.0,1.8952,0.0008,407.98,0.30,27.3,29.6,138.23,22.97,24.61,36.33,0.04,-272.76,-272.76,-34,547,-924,17.0,20.8,-5.6,17.3,21.1,-5.2,5.73,2.43,-26.7,22.9
2013-06-05 01:26:00,0.0,1.8955,0.0010,408.06,0.26,35.3,35.3,138.23,22.97,24.61,36.34,0.04,-272.75,-272.76,-34,547,-924,17.0,20.9,-5.5,17.3,21.2,-5.1,5.73,2.43,-26.7,22.9
2013-06-05 01:27:00,0.0,1.8949,0.0010,408.09,0.27,35.6,38.2,138.23,22.98,24.62,36.33,0.04,-272.75,-272.76,-35,547,-924,17.0,21.0,-5.5,17.3,21.3,-5.1,5.73,2.43,-26.7,22.8
2013-06-05 01:28:00,0.0,1.8952,0.0011,408.00,0.23,36.4,33.4,138.23,22.98,24.62,36.34,0.04,-272.76,-272.76,-35,547,-924,17.0,20.7,-5.6,17.3,21.1,-5.2,5.73,2.43,-26.7,22.8
2013-06-05 01:29:00,0.0,1.8951,0.0011,407.92,0.25,33.7,34.2,138.23,22.98,24.61,36.34,0.04,-272.76,-272.75,-35,547,-924,17.0,20.5,-5.8,17.3,20.8,-5.3,5.73,2.43,-26.7,22.8
2013-06-05 01:30:00,0.0,1.8945,0.0010,408.01,0.25,36.3,41.1,138.23,22.98,24.62,36.34,0.04,-272.75,-272.76,-35,548,-924,17.0,20.4,-5.9,17.3,20.7,-5.4,5.73,2.43,-26.6,22.8
2013-06-05 01:31:00,0.0,1.8947,0.0011,407.94,0.21,31.5,34.0,138.23,22.97,24.61,36.34,0.04,-272.76,-272.76,-35,548,-924,17.1,20.3,-5.9,17.3,20.7,-5.4,5.73,2.43,-26.7,22.9
2013-06-05 01:32:00,0.0,1.8944,0.0011,407.95,0.30,45.1,38.3,138.23,22.97,24.62,36.34,0.04,-272.75,-272.76,-35,548,-924,17.1,20.2,-5.9,17.3,20.6,-5.5,5.73,2.43,-26.6,22.9
2013-06-05 01:33:00,0.0,1.8940,0.0009,408.03,0.31,38.0,37.7,138.23,22.97,24.62,36.33,0.04,-272.75,-272.75,-35,548,-924,17.1,20.1,-6.0,17.3,20.4,-5.6,5.73,2.43,-26.6,22.9
2013-06-05 01:34:00,0.0,1.8944,0.0010,407.97,0.29,30.3,29.1,138.23,22.97,24.61,36.34,0.04,-272.76,-272.76,-35,547,-924,17.1,20.2,-5.9,17.3,20.5,-5.5,5.73,2.43,-26.6,22.9
2013-06-05 01:35:00,0.0,1.8942,0.0008,407.95,0.27,43.3,39.3,138.23,22.97,24.62,36.34,0.04,-272.76,-272.76,-35,547,-924,17.1,20.2,-5.9,17.3,20.6,-5.5,5.73,2.43,-26.6,22.9
2013-06-05 01:36:00,0.0,1.8944,0.0010,407.90,0.26,31.2,34.8,138.23,22.97,24.62,36.34,0.04,-272.76,-272.76,-35,548,-924,17.1,20.2,-5.9,17.3,20.5,-5.5,5.73,2.42,-26.6,22.9
2013-06-05 01:37:00,0.0,1.8945,0.0009,407.95,0.24,37.4,33.6,138.23,22.97,24.62,36.34,0.04,-272.75,-272.75,-35,548,-924,17.1,20.1,-6.0,17.3,20.4,-5.6,5.73,2.43,-26.6,23.0
2013-06-05 01:38:00,0.0,1.8947,0.0010,408.06,0.26,35.9,34.3,138.23,22.97,24.62,36.33,0.04,-272.76,-272.76,-34,548,-924,17.1,20.1,-6.0,17.3,20.4,-5.6,5.73,2.43,-26.6,22.9
2013-06-05 01:39:00,0.0,1.8944,0.0010,407.97,0.25,45.3,42.1,138.23,22.97,24.62,36.34,0.04,-272.75,-272.76,-34,548,-924,17.1,20.2,-5.9,17.3,20.6,-5.5,5.73,2.43,-26.6,23.0
2013-06-05 01:40:00,0.0,1.8943,0.0011,407.99,0.29,31.1,37.6,138.23,22.97,24.62,36.33,0.04,-272.75,-272.75,-34,548,-924,17.1,20.4,-5.8,17.3,20.7,-5.4,5.73,2.42,-26.6,22.9
2013-06-05 01:41:00,0.0,1.8945,0.0010,407.95,0.25,40.6,34.5,138.23,22.97,24.61,36.34,0.04,-272.76,-272.76,-34,548,-924,17.0,20.4,-5.9,17.3,20.7,-5.4,5.73,2.42,-26.6,22.9
2013-06-05 01:42:00,0.0,1.8944,0.0010,407.96,0.25,39.7,40.2,138.23,22.98,24.61,36.34,0.04,-272.76,-272.75,-34,548,-924,17.0,20.4,-5.9,17.3,20.7,-5.4,5.73,2.43,-26.6,22.9
2013-06-05 01:43:00,0.0,1.8945,0.0009,408.05,0.27,31.9,34.2,138.23,22.98,24.62,36.33,0.04,-272.75,-272.75,-35,547,-924,17.0,20.4,-5.8,17.3,20.8,-5.4,5.73,2.43,-26.6,22.9
2013-06-05 01:44:00,0.0,1.8944,0.0010,408.01,0.32,39.0,33.7,138.23,22.97,24.62,36.34,0.04,-272.76,-272.75,-35,548,-924,17.0,20.2,-5.9,17.3,20.6,-5.5,5.73,2.42,-26.6,22.9
2013-06-05 01:45:00,0.0,1.8946,0.0010,407.93,0.24,35.9,35.6,138.23,22.97,24.62,36.34,0.04,-272.76,-272.76,-35,548,-924,17.1,20.0,-6.1,17.3,20.3,-5.6,5.73,2.42,-26.6,22.9
2013-06-05 01:46:00,0.0,1.8947,0.0009,407.98,0.26,38.9,31.5,138.23,22.97,24.61,36.33,0.04,-272.76,-272.76,-35,548,-924,17.0,19.9,-6.1,17.3,20.3,-5.7,5.73,2.42,-26.6,22.9
2013-06-05 01:47:00,0.0,1.8943,0.0011,407.96,0.25,37.0,38.2,138.23,22.97,24.62,36.34,0.04,-272.76,-272.76,-35,548,-924,17.0,20.0,-6.1,17.3,20.3,-5.7,5.73,2.43,-26.6,22.9
2013-06-05 01:48:00,0.0,1.8942,0.0010,407.86,0.27,43.1,36.5,138.23,22.97,24.62,36.34,0.04,-272.76,-272.76,-35,548,-924,17.1,20.0,-6.1,17.3,20.3,-5.6,5.73,2.43,-26.6,22.8
2013-06-05 01:49:00,0.0,1.8944,0.0009,407.95,0.33,42.9,33.6,138.23,22.97,24.62,36.34,0.04,-272.76,-272.75,-35,548,-924,17.1,20.1,-6.0,17.3,20.4,-5.6,5.73,2.43,-26.6,22.7
2013-06-05 01:50:00,0.0,1.8944,0.0010,407.83,0.24,46.5,41.4,138.23,22.98,24.62,36.34,0.04,-272.75,-272.76,-35,548,-924,17.1,20.0,-6.1,17.3,20.4,-5.6,5.73,2.42,-26.6,22.8
2013-06-05 01:51:00,0.0,1.8950,0.0010,407.90,0.31,43.5,42.4,138.23,22.98,24.61,36.34,0.04,-272.76,-272.76,-35,548,-924,17.1,20.0,-6.1,17.3,20.3,-5.7,5.73,2.43,-26.6,22.8
2013-06-05 01:52:00,0.0,1.8948,0.0009,407.93,0.24,39.9,32.0,138.23,22.98,24.62,36.34,0.04,-272.76,-272.76,-35,548,-924,17.1,20.0,-6.1,17.3,20.4,-5.6,5.73,2.43,-26.6,22.9
2013-06-05 01:53:00,0.0,1.8947,0.0011,407.99,0.28,44.3,38.3,138.23,22.99,24.62,36.34,0.04,-272.75,-272.76,-35,548,-924,17.1,20.0,-6.0,17.3,20.3,-5.6,5.73,2.42,-26.6,22.9
2013-06-05 01:54:00,0.0,1.8949,0.0011,407.90,0.33,49.2,37.9,138.23,22.98,24.62,36.34,0.04,-272.75,-272.76,-35,548,-924,17.1,20.0,-6.0,17.3,20.4,-5.6,5.73,2.42,-26.6,22.9
2013-06-05 01:55:00,0.0,1.8950,0.0010,407.94,0.29,44.6,43.8,138.23,22.98,24.62,36.34,0.04,-272.75,-272.76,-35,548,-924,17.1,20.2,-5.9,17.3,20.5,-5.5,5.73,2.43,-26.6,22.9
2013-06-05 01:56:00,0.0,1.8945,0.0010,408.02,0.27,41.5,34.5,138.23,22.98,24.62,36.33,0.04,-272.76,-272.75,-35,548,-924,17.1,20.2,-5.9,17.3,20.6,-5.5,5.73,2.43,-26.6,22.9
2013-06-05 01:57:00,0.0,1.8949,0.0012,408.00,0.31,43.2,39.4,138.23,22.99,24.62,36.34,0.04,-272.75,-272.76,-35,548,-924,17.1,20.3,-5.9,17.3,20.6,-5.5,5.73,2.42,-26.6,22.9
2013-06-05 01:58:00,0.0,1.8947,0.0010,408.01,0.32,36.6,33.1,138.23,22.99,24.62,36.34,0.04,-272.75,-272.76,-35,548,-924,17.1,20.3,-5.8,17.3,20.7,-5.4,5.73,2.42,-26.6,22.9
2013-06-05 01:59:00,0.0,1.8950,0.0010,408.08,0.29,41.1,39.2,138.23,22.99,24.61,36.33,0.04,-272.76,-272.75,-35,548,-924,17.1,20.3,-5.9,17.3,20.6,-5.4,5.73,2.43,-26.6,22.9
2013-06-05 02:00:00,0.0,1.8944,0.0011,408.03,0.25,37.5,40.9,138.23,22.99,24.62,36.33,0.04,-272.76,-272.76,-35,548,-924,17.1,20.3,-5.9,17.4,20.6,-5.4,5.73,2.42,-26.6,22.9
2013-06-05 02:01:00,0.0,1.8943,0.0012,407.89,0.29,36.9,33.3,138.23,22.99,24.62,36.35,0.04,-272.76,-272.76,-35,548,-924,17.1,20.3,-5.9,17.4,20.6,-5.4,5.73,2.42,-26.6,22.9
2013-06-05 02:02:00,0.0,1.8948,0.0010,407.92,0.24,34.5,35.1,138.23,22.99,24.61,36.34,0.04,-272.76,-272.76,-35,548,-924,17.1,20.2,-5.9,17.3,20.6,-5.5,5.73,2.42,-26.6,22.9
2013-06-05 02:03:00,0.0,1.8944,0.0009,407.99,0.25,39.9,34.6,138.23,22.99,24.62,36.34,0.04,-272.76,-272.75,-35,548,-924,17.1,20.2,-5.9,17.3,20.5,-5.5,5.73,2.42,-26.6,22.9
2013-06-05 02:04:00,0.0,1.8951,0.0010,408.06,0.26,39.4,33.2,138.23,22.99,24.62,36.33,0.04,-272.75,-272.76,-35,548,-924,17.1,20.2,-5.9,17.3,20.5,-5.5,5.73,2.42,-26.6,22.9
2013-06-05 02:05:00,0.0,1.8948,0.0010,408.00,0.26,42.0,35.4,138.23,23.00,24.62,36.33,0.04,-272.76,-272.76,-35,548,-924,17.1,20.1,-6.0,17.3,20.5,-5.5,5.73,2.43,-26.6,22.9
2013-06-05 02:06:00,0.0,1.8951,0.0011,407.93,0.30,44.0,41.3,138.23,23.00,24.62,36.34,0.04,-272.76,-272.75,-35,548,-924,17.1,20.1,-5.9,17.3,20.5,-5.5,5.73,2.42,-26.6,22.9
2013-06-05 02:07:00,0.0,1.8949,0.0011,408.02,0.30,49.4,43.1,138.23,23.00,24.62,36.33,0.04,-272.75,-272.76,-35,548,-924,17.1,20.2,-5.9,17.3,20.5,-5.5,5.73,2.41,-26.6,22.8
2013-06-05 02:08:00,0.0,1.8945,0.0010,408.01,0.27,34.9,36.9,138.23,23.00,24.62,36.34,0.04,-272.76,-272.76,-34,548,-924,17.1,20.2,-5.9,17.4,20.5,-5.5,5.73,2.42,-26.6,22.8
2013-06-05 02:09:00,0.0,1.8948,0.0010,408.10,0.29,38.5,33.3,138.23,23.00,24.61,36.33,0.04,-272.76,-272.76,-35,548,-924,17.1,20.2,-5.9,17.4,20.6,-5.4,5.73,2.42,-26.6,22.9
2013-06-05 02:10:00,0.0,1.8947,0.0010,407.95,0.27,31.8,34.5,138.23,23.00,24.62,36.34,0.04,-272.75,-272.76,-35,548,-924,17.1,20.3,-5.9,17.4,20.6,-5.4,5.73,2.42,-26.6,22.9
2013-06-05 02:11:00,0.0,1.8945,0.0011,408.03,0.28,34.0,38.7,138.23,23.00,24.62,36.33,0.04,-272.76,-272.76,-35,548,-924,17.2,20.2,-5.9,17.4,20.5,-5.5,5.73,2.42,-26.6,22.8
2013-06-05 02:12:00,0.0,1.8952,0.0011,407.99,0.26,39.4,34.6,138.23,23.00,24.61,36.34,0.04,-272.76,-272.76,-35,548,-924,17.2,20.0,-6.0,17.4,20.4,-5.6,5.73,2.43,-26.6,22.9
2013-06-05 02:13:00,0.0,1.8949,0.0009,407.96,0.28,37.3,37.0,138.23,23.00,24.61,36.34,0.04,-272.75,-272.76,-35,548,-924,17.2,20.0,-6.0,17.4,20.4,-5.6,5.73,2.42,-26.6,22.9
2013-06-05 02:14:00,0.0,1.8951,0.0012,408.13,0.28,35.1,32.0,138.22,23.00,24.61,36.34,0.04,-272.75,-272.75,-35,548,-924,17.2,20.1,-5.9,17.4,20.4,-5.5,5.73,2.43,-26.6,22.9
2013-06-05 02:15:00,0.0,1.8948,0.0012,408.07,0.27,40.9,34.4,138.23,23.00,24.62,36.34,0.04,-272.76,-272.76,-35,548,-924,17.2,20.1,-5.9,17.4,20.4,-5.5,5.73,2.42,-26.6,22.9
2013-06-05 02:16:00,0.0,1.8945,0.0009,408.03,0.27,41.6,34.8,138.23,23.00,24.61,36.34,0.04,-272.76,-272.76,-35,548,-924,17.1,20.1,-6.0,17.4,20.4,-5.5,5.73,2.43,-26.6,22.9
2013-06-05 02:17:00,0.0,1.8945,0.0011,407.90,0.30,38.6,34.4,138.23,23.00,24.62,36.34,0.04,-272.76,-272.75,-35,548,-924,17.1,20.1,-6.0,17.4,20.4,-5.5,5.73,2.43,-26.6,23.0